Kailua Kona, HI

5:03 AM HST on February 21, 2017 (GMT -1000)
Kona International At Keahole

Weather History for PHKO - May, 2014

Change the Weather History Date:

Thursday, May 1, 2014

  Actual Average Record
Temperature  
Mean Temperature 78 °F -  
Max Temperature 82 °F 80 °F 89 °F (1983)
Min Temperature 73 °F 69 °F 66 °F (1998)
Cooling Degree Days 12    
Growing Degree Days 28 (Base 50)    
Moisture  
Dew Point 67 °F    
Average Humidity 72    
Maximum Humidity 84    
Minimum Humidity 56    
Precipitation  
Precipitation 0.00 in - - ()
Sea Level Pressure  
Sea Level Pressure 29.97 in    
Wind  
Wind Speed 7 mph (SE)    
Max Wind Speed 20 mph    
Max Gust Speed -    
Visibility 10 miles    
Events Rain    
Averages and records for this station are not official NWS values.
T = Trace of Precipitation, MM = Missing Value Source: NWS Daily Summary

Daily Weather History Graph

Daily Weather History Graph

Search for Another Location

Airport or City:

Trip Planner

Search our weather history database for the weather conditions in past years. The results will help you decide how hot, cold, wet, or windy it might be!

Date:

Astronomy

May. 01, 2014 Rise Set
Actual Time 5:55 AM HST 6:47 PM HST
Civil Twilight 5:32 AM HST 7:10 PM HST
Nautical Twilight 5:05 AM HST 7:37 PM HST
Astronomical Twilight 4:37 AM HST 8:05 PM HST
Moon 7:59 AM HST (5/1) 9:21 PM HST (5/1)
Length of Visible Light 13h 38m
Length of Day
12h 52m
Waxing Crescent, 8% of the Moon is Illuminated
May 1
Waxing Crescent
May 6
First Quarter
May 14
Full
May 21
Last Quarter
May 28
New

Hourly Weather History & Observations

Time (HST) Temp. Heat Index Dew Point Humidity Pressure Visibility Wind Dir Wind Speed Gust Speed Precip Events Conditions
12:53 AM 75.0 °F - 66.9 °F 76% 29.98 in 10.0 mi Calm Calm - N/A   Scattered Clouds
1:53 AM 75.0 °F - 69.1 °F 82% 29.95 in 10.0 mi SSE 9.2 mph - N/A   Clear
2:23 AM 75.2 °F - 69.8 °F 83% 29.94 in 10.0 mi SE 10.4 mph - N/A   Mostly Cloudy
2:53 AM 75.0 °F - 68.0 °F 79% 29.94 in 10.0 mi ESE 9.2 mph - N/A   Overcast
3:53 AM 75.0 °F - 66.9 °F 76% 29.93 in 10.0 mi SE 6.9 mph - N/A   Mostly Cloudy
4:53 AM 75.0 °F - 66.0 °F 73% 29.94 in 10.0 mi South 3.5 mph - N/A   Overcast
5:53 AM 73.0 °F - 68.0 °F 84% 29.95 in 10.0 mi NE 6.9 mph - 0.00 in Rain Light Rain
5:56 AM 73.4 °F - 68.0 °F 83% 29.95 in 10.0 mi NE 6.9 mph - 0.00 in Rain Light Rain
6:53 AM 73.9 °F - 68.0 °F 82% 29.96 in 10.0 mi ENE 4.6 mph - 0.00 in   Overcast
7:53 AM 77.0 °F - 66.9 °F 71% 29.97 in 10.0 mi North 16.1 mph - N/A   Overcast
8:53 AM 79.0 °F - 66.0 °F 64% 29.97 in 10.0 mi North 16.1 mph - N/A   Overcast
9:53 AM 80.1 °F 82.1 °F 66.0 °F 62% 29.98 in 10.0 mi North 19.6 mph - N/A   Overcast
10:53 AM 82.9 °F 85.0 °F 66.0 °F 56% 29.97 in 10.0 mi North 16.1 mph - N/A   Overcast
11:53 AM 80.1 °F 82.1 °F 66.0 °F 62% 29.97 in 10.0 mi NW 10.4 mph - 0.00 in Rain Light Rain
12:53 PM 81.0 °F 83.0 °F 66.0 °F 60% 29.96 in 10.0 mi Calm Calm - 0.00 in   Mostly Cloudy
1:53 PM 81.0 °F 84.1 °F 69.1 °F 67% 29.95 in 10.0 mi South 16.1 mph - N/A   Overcast
2:53 PM 80.1 °F 82.9 °F 69.1 °F 69% 29.95 in 10.0 mi SSW 15.0 mph - N/A   Mostly Cloudy
3:53 PM 79.0 °F - 69.1 °F 72% 29.95 in 10.0 mi WSW 9.2 mph - N/A   Overcast
4:53 PM 78.1 °F - 68.0 °F 71% 29.95 in 10.0 mi WSW 8.1 mph - N/A   Overcast
5:53 PM 77.0 °F - 68.0 °F 74% 29.96 in 10.0 mi WNW 9.2 mph - N/A   Overcast
6:53 PM 77.0 °F - 66.9 °F 71% 29.97 in 10.0 mi WNW 10.4 mph - N/A   Overcast
7:53 PM 77.0 °F - 66.9 °F 71% 29.99 in 10.0 mi Calm Calm - N/A   Overcast
8:53 PM 77.0 °F - 66.9 °F 71% 30.01 in 10.0 mi East 4.6 mph - N/A   Overcast
9:53 PM 77.0 °F - 66.9 °F 71% 30.02 in 10.0 mi ESE 4.6 mph - N/A   Overcast
10:42 PM 77.0 °F - 66.2 °F 69% 30.02 in 10.0 mi SE 4.6 mph - N/A   Overcast
10:53 PM 77.0 °F - 66.9 °F 71% 30.02 in 10.0 mi SSE 5.8 mph - N/A   Overcast
11:04 PM 77.0 °F - 66.2 °F 69% 30.02 in 10.0 mi SE 5.8 mph - N/A   Overcast
11:44 PM 77.0 °F - 66.2 °F 69% 30.01 in 10.0 mi SSE 6.9 mph - N/A   Overcast
11:53 PM 77.0 °F - 66.9 °F 71% 30.01 in 10.0 mi South 4.6 mph - N/A   Overcast